Weather History for KFNB - January, 2013

Change the Weather History Date:

Sunday, January 20, 2013

  Actual Average Record
Temperature  
Mean Temperature 21 °F -  
Max Temperature 28 °F 37 °F 65 °F (1997)
Min Temperature 12 °F 16 °F -13 °F (1985)
Degree Days  
Heating Degree Days 44    
Moisture  
Dew Point 9 °F    
Average Humidity 60    
Maximum Humidity 77    
Minimum Humidity 39    
Precipitation  
Precipitation 0.00 in - - ()
Sea Level Pressure  
Sea Level Pressure 30.40 in    
Wind  
Wind Speed 8 mph (North)    
Max Wind Speed 13 mph    
Max Gust Speed 18 mph    
Visibility 10 miles    
Events      
Averages and records for this station are not official NWS values.
T = Trace of Precipitation, MM = Missing Value Source: NWS Daily Summary

Daily Weather History Graph

Daily Weather History Graph

Search for Another Location

Airport or City:

Trip Planner

Search our weather history database for the weather conditions in past years. The results will help you decide how hot, cold, wet, or windy it might be!

Date:

Astronomy

Jan. 20, 2013 Rise Set
Actual Time 7:39 AM CST 5:27 PM CST
Civil Twilight 7:10 AM CST 5:56 PM CST
Nautical Twilight 6:37 AM CST 6:30 PM CST
Astronomical Twilight 6:05 AM CST 7:02 PM CST
Moon 12:29 PM CST (1/20) 2:13 AM CST (1/20)
Length of Visible Light 10h 46m
Length of Day
9h 47m
Waxing Gibbous, 66% of the Moon is Illuminated
Jan 20
Waxing Gibbous
Jan 26
Full
Feb 3
Last Quarter
Feb 10
New
Feb 17
First Quarter

Hourly Weather History & Observations

Time (CST) Temp. Windchill Dew Point Humidity Pressure Visibility Wind Dir Wind Speed Gust Speed Precip Events Conditions
12:53 AM 27.0 °F 16.7 °F 14.0 °F 58% 30.33 in 10.0 mi North 11.5 mph 18.4 mph N/A   Clear
1:53 AM 24.1 °F 17.0 °F 14.0 °F 65% 30.35 in 10.0 mi North 5.8 mph - N/A   Clear
2:53 AM 21.9 °F 13.4 °F 14.0 °F 72% 30.36 in 10.0 mi NNE 6.9 mph - N/A   Clear
3:53 AM 19.9 °F 11.1 °F 12.0 °F 71% 30.35 in 10.0 mi NNE 6.9 mph - N/A   Clear
4:53 AM 19.0 °F 13.9 °F 10.9 °F 71% 30.36 in 10.0 mi NNE 3.5 mph - N/A   Clear
5:53 AM 19.0 °F 12.3 °F 10.9 °F 71% 30.36 in 10.0 mi NE 4.6 mph - N/A   Clear
6:53 AM 17.1 °F 10.0 °F 10.0 °F 74% 30.37 in 10.0 mi NE 4.6 mph - N/A   Clear
7:53 AM 16.0 °F 8.8 °F 9.0 °F 74% 30.37 in 10.0 mi NE 4.6 mph - N/A   Clear
8:53 AM 18.0 °F 7.7 °F 8.1 °F 65% 30.37 in 10.0 mi NE 8.1 mph - N/A   Clear
9:53 AM 21.0 °F 10.6 °F 8.1 °F 57% 30.38 in 10.0 mi NE 9.2 mph - N/A   Clear
10:53 AM 24.1 °F 15.2 °F 9.0 °F 53% 30.41 in 10.0 mi NNE 8.1 mph - N/A   Clear
11:53 AM 24.1 °F 15.2 °F 8.1 °F 51% 30.41 in 10.0 mi NE 8.1 mph - N/A   Clear
12:53 PM 28.0 °F 20.0 °F 9.0 °F 45% 30.40 in 10.0 mi North 8.1 mph - N/A   Clear
1:53 PM 27.0 °F 17.3 °F 5.0 °F 39% 30.38 in 10.0 mi North 10.4 mph - N/A   Mostly Cloudy
2:53 PM 27.0 °F 16.1 °F 7.0 °F 43% 30.38 in 10.0 mi NNE 12.7 mph - N/A   Overcast
3:53 PM 24.1 °F 13.7 °F 6.1 °F 46% 30.40 in 10.0 mi North 10.4 mph - N/A   Overcast
4:53 PM 23.0 °F 11.1 °F 3.9 °F 44% 30.41 in 10.0 mi North 12.7 mph - N/A   Overcast
5:53 PM 21.9 °F 11.7 °F 6.1 °F 51% 30.43 in 10.0 mi North 9.2 mph - N/A   Overcast
6:53 PM 21.0 °F 11.4 °F 6.1 °F 53% 30.45 in 10.0 mi North 8.1 mph - N/A   Overcast
7:53 PM 18.0 °F 11.1 °F 7.0 °F 62% 30.45 in 10.0 mi NNW 4.6 mph - N/A   Partly Cloudy
8:53 PM 17.1 °F 8.7 °F 7.0 °F 65% 30.44 in 10.0 mi NNW 5.8 mph - N/A   Clear
9:53 PM 15.1 °F 6.4 °F 7.0 °F 70% 30.45 in 10.0 mi NW 5.8 mph - N/A   Clear
10:53 PM 14.0 °F 6.5 °F 7.0 °F 74% 30.47 in 10.0 mi NW 4.6 mph - N/A   Clear
11:53 PM 12.9 °F 6.9 °F 7.0 °F 77% 30.47 in 10.0 mi WNW 3.5 mph - N/A   Clear